STARLINK-1484, 45756

Orbit data source: Space-Track

STARLINK-1484, 45756 is a payload satellite owned by SpaceX/Seattle (US) in LEO that was launched on Sat, 13 Jun 2020 UTC via an FALCON 9 launch vehicle from the Air Force Eastern Test Range (AFETR). Payload-class satellites include a variety of spacecraft equipped with specific instruments for various scientific and technological missions. These include communications satellites like Starlink; space stations such as the ISS; scientific satellites like the Hubble; Earth observation satellites from companies like Planet Labs, Umbra, and HawkEye 360; GPS; miniature CubeSats for education and research; and military/defense satellites.

Loading next visibility...
Identifier
45756, 2020-038AC
Orbit
LEO
Country
Flag of USUS
Related business
Manufacturer
SpaceX/Seattle
Mission
Partially operational Commercial Communications
Bus & Motor
STARLINK, Unknown motor
Mass
260 kg wet, ~248 kg dry
Launch date (UTC)
2020-06-13 (6 years ago)
Launch vehicle
FALCON 9
Launch site
Air Force Eastern Test Range (AFETR)
Object type
Payload
Rocket body
Debris
Shape & HBR
Box + 1 Pan, 10.1 m
Radar Cross Section
13.562 m², Large (>1 m²)

Expand to show TLE details & history
Last TLE update: 15 hours ago

TLE from 15 hours ago
0 STARLINK-1484
1 45756U 20038AC  26033.66670139  .00154984  00000-0  69365-3 0  9995
2 45756  53.0059 235.4729 0003376 191.3854 176.2205 15.83240470  5993
Epoch: 2026-02-02T16:00Z
TLE epoch observation values (Epoch: 2026-02-02T16:00:03.000Z)
Latitude
6.02716°
Longitude
-132.86163°
Altitude
323.862 km
Speed
7.714 km/s
True Right ascension
16h 00m 02s
True Declination
5° 59' 21"
Sunlit
Object was in daylight at epoch
Visualization orbit readout
Latitude
Unknown
Longitude
Unknown
Altitude
Unknown
Speed
Unknown
Apparent Right ascension
Unknown
Apparent Declination
Unknown
Sunlit
N/A
Visualization observer readout
Local Sidereal Time
08:59:41
Azimuth
Unknown
Elevation
Unknown
Doppler factor
Unknown
Orbital elements
Apogee altitude
323.833 km
Perigee altitude
319.31 km
Semi-major axis
6,699.708 km
Eccentricity
0.00034
Inclination
53.0059°
RAAN
235.4729°
Arg. of periapsis
191.3854°
True anomaly
176.22305°
Mean anomaly
176.2205°
Eccentric anomaly
176.22177°
Mean motion
3.95785 °/min
Orbital period
90.96 mins
BSTAR
0.00069365
Loading maneuver chart data...
Computing Atmospheric mass density...

Documentation

Showing up to 5 results
|